Погода в Искателей

Россия / Ненецкий автономный округ     67°40′39″N   53°07′38″E
темп.,
°C
ветер,
м/с
пор.,
м/с
влажн.,
%
обл.,
%
осадки,
мм/ч
давл.,
гПа
погр.,
м
27 января, чт
чт2700:00−16ююз6129549 0.0 1007175
03:00−17ююз510975 0.0 1007130
06:00−18ююз499824 0.0 1006116
09:00−19ююз489953 0.0 100686
12:00−19ююз489849 0.0 1006110
15:00−21ююз489960 0.0 100693
18:00−20ююз4810075 0.0 100692
21:00−16ююз499582 0.1 1006170
28 января, пт
пт2800:00−17ююз499782 0.0 1006132
03:00−17ююз499779 0.1 1006134
06:00−16ююз4995100 0.0 1007130
09:00−14ююз4890100 0.0 1007148
12:00−14ю4990100 0.0 1008170
15:00−16ю4893100 0.0 1009111
18:00−13ю41093100 0.0 1009196
21:00−14ю51092100 0.0 1008214
29 января, сб
сб2900:00−15ю51093100 0.0 1008215
03:00−15ю51194100 0.0 1008228
06:00−13ю61192100 0.0 1007326
09:00−12ю61193100 0.2 1007411
12:00−12ю6109399 0.2 1007365
15:00−13ю5119388 0.2 1006262
18:00−12ю6119386 0.1 1005302
21:00−12ю61293100 0.1 1004332
30 января, вс
вс3000:00−11ю71392100 0.1 1003403
03:00−9ю71394100 0.3 1002478
06:00−8ю71294100 0.7 1001520
09:00−8ююз61194100 1.4 1001478
12:00−8ююз599394 0.1 1002277
15:00−13ю3698100 0.1 100470
18:00−14ю3598100 0.0 100561
21:00−16ю3598100 0.1 100659
31 января, пн
пн3100:00−13ююв3696100 0.0 1006107
03:00−14ююв3796100 0.1 1007107
06:00−18ююв339945 0.0 100733
09:00−18ю359711 0.0 100858
12:00−17ююв36965 0.0 100971
15:00−21ююв3310039 0.0 100929
18:00−21ююв3310048 0.0 101034
21:00−20ю3410015 0.0 101040